Location: Caltech
(34.1382°N, 118.1253°W)
Time: 15:58:15
(UTC-08:00)

Cosmos 1408 Rocket - Visible Passes

Search period start: 05 March 2015 00:00
Search period end: 15 March 2015 01:00
Orbit: 603 x 631 km, 82.6° (Epoch: 04 March)

Date Brightness Start Highest point End Pass type
(mag) Time Alt. Az. Time Alt. Az. Time Alt. Az.
05 Mar 5.1 20:02:08 10° N 20:04:24 30° NNW 20:04:24 30° NNW visible
06 Mar 5.3 18:42:56 10° NE 18:44:57 14° ENE 18:44:57 14° ENE visible
06 Mar 5.2 20:19:08 10° NNW 20:22:08 33° NW 20:22:08 33° NW visible
07 Mar 4.5 18:58:32 10° NNE 19:02:15 26° ENE 19:02:52 26° E visible
07 Mar 5.9 20:36:37 10° NW 20:39:58 20° W 20:40:04 20° W visible
08 Mar 3.7 20:14:49 10° N 20:19:10 51° E 20:21:03 30° SE visible
08 Mar 6.7 21:55:38 10° WNW 21:56:34 10° W 21:57:11 10° W visible
09 Mar 3.6 20:31:30 10° N 20:35:57 80° W 20:39:40 14° S visible
10 Mar 4.9 20:48:30 10° NNW 20:52:39 39° W 20:56:44 10° SSW visible
11 Mar 4.5 19:27:53 10° NNE 19:31:35 26° ENE 19:35:20 10° SE visible
11 Mar 6.1 21:05:58 10° NW 21:09:18 20° W 21:12:29 10° SW visible
12 Mar 3.7 19:44:10 10° N 19:48:30 51° E 19:52:47 10° SSE visible
12 Mar 6.9 21:25:00 10° WNW 21:25:54 10° W 21:26:30 10° W visible
13 Mar 3.7 20:00:50 10° N 20:05:17 80° W 20:09:39 10° S visible
14 Mar 5.0 20:17:50 10° NNW 20:21:59 39° W 20:26:03 10° SSW visible
